Location: Peebles
(55.6412°N, 3.1714°W)
Time: 23:19:14
(UTC+00:00)

RS-15 - Pass Details

Date: 08 December 2023
Orbit: 1893 x 2151 km, 64.8° (Epoch: 01 March)

Event Time Altitude Azimuth Distance (km) Brightness Sun altitude
Rises 00:34:19 0° 278° (W) 5,607 10.4 -56.6°
Enters shadow 00:34:33 - 279° (W) 5,540 10.4 -56.6°
Exits shadow 00:55:55 29° 65° (ENE) 3,152 9.2 -55.7°
Drops below altitude 10° 01:00:39 10° 78° (ENE) 4,371 10.0 -55.4°
Sets 01:04:02 0° 83° (E) 5,342 10.6 -55.2°
